This demonstration page uses our WeatherBlox Daily Observations layout. Learn more.

Left ArrowRight Arrow

39.51506, -84.39828

Hourly Observations for June 8, 2017

Temp ( °F °C ) Dew Point ( °F °C ) Humidity (%) Winds ( mph kmh ) Pressure ( in mb ) Visibility ( mi km ) Precip ( " mm )
12:15 am 00:15 Clear 55 12.5 48 8.7 78 78 N 6 9 30.06 1018 10 16 N/A
12:35 am 00:35 Clear 55 12.5 47 8.5 77 77 N 6 9 30.06 1018 10 16 N/A
12:55 am 00:55 Clear 55 12.5 47 8.5 77 77 N N/A 30.06 1018 10 16 N/A
1:15 am 01:15 Clear 55 12.5 47 8.5 77 77 N N/A 30.06 1018 10 16 N/A
1:35 am 01:35 Clear 55 12.5 48 9 79 79 N N/A 30.06 1018 10 16 N/A
1:55 am 01:55 Clear 54 12.1 48 8.9 81 81 N N/A 30.06 1018 10 16 N/A
2:15 am 02:15 Clear 52 11 46 8 82 82 N N/A 30.03 1017 10 16 N/A
2:35 am 02:35 Clear 54 12.2 48 9.1 82 82 N N/A 30.03 1017 10 16 N/A
2:55 am 02:55 Clear 52 11 46 8 82 82 N 3 6 30.03 1017 10 16 N/A
3:15 am 03:15 Clear 51 10.3 45 7.3 82 82 N 3 6 30.03 1017 10 16 N/A
3:35 am 03:35 Clear 52 11 46 8 82 82 N N/A 30.03 1017 10 16 N/A
3:55 am 03:55 Clear 52 11 46 7.8 81 81 NNE 5 7 30.03 1017 10 16 N/A
4:15 am 04:15 Clear 51 10.7 46 7.5 81 81 N 5 7 30.03 1017 10 16 N/A
4:35 am 04:35 Clear 53 11.4 47 8.2 81 81 NNE 5 7 30.03 1017 10 16 N/A
4:55 am 04:55 Clear 52 11 46 7.8 81 81 N 3 6 30.03 1017 10 16 N/A
5:15 am 05:15 Partly Cloudy 52 11 46 7.9 81 81 N 3 6 30.03 1017 10 16 N/A
5:35 am 05:35 Clear 52 11 46 7.9 81 81 N 5 7 30.03 1017 10 16 N/A
5:55 am 05:55 Clear 51 10.5 46 7.5 82 82 NNE 3 6 30.03 1017 10 16 N/A
6:15 am 06:15 Sunny 52 11 46 8 82 82 N 5 7 30.03 1017 10 16 N/A
6:35 am 06:35 Sunny 52 11 46 7.9 81 81 N N/A 30.03 1017 10 16 N/A
6:55 am 06:55 Sunny 54 12.2 48 9.1 82 82 N 3 6 30.06 1018 10 16 N/A
7:15 am 07:15 Sunny 55 12.5 49 9.2 80 80 N N/A 30.06 1018 10 16 N/A
7:35 am 07:35 Sunny 55 12.5 49 9.2 80 80 N N/A 30.06 1018 10 16 N/A
7:55 am 07:55 Sunny 57 13.8 50 10.1 79 79 NNE 3 6 30.06 1018 10 16 N/A
8:15 am 08:15 Sunny 57 13.8 49 9.6 76 76 NNE 5 7 30.06 1018 10 16 N/A
8:35 am 08:35 Sunny 60 15.3 51 10.6 74 74 NNE 7 11 30.06 1018 10 16 N/A
8:55 am 08:55 Sunny 60 15.3 50 10 71 71 N 3 6 30.06 1018 10 16 N/A
9:15 am 09:15 Sunny 61 16 50 9.9 67 67 NNE 6 9 30.03 1017 10 16 N/A
9:35 am 09:35 Sunny 62 16.6 50 10 65 65 NNE 6 9 30.03 1017 10 16 N/A
9:55 am 09:55 Sunny 63 17.4 50 9.8 61 61 NNE 8 13 30.00 1016 10 16 N/A
10:15 am 10:15 Sunny 66 19.1 51 10.7 58 58 N 8 13 30.00 1016 10 16 N/A
10:35 am 10:35 Sunny 69 20.8 53 11.6 56 56 NNE 8 13 30.00 1016 10 16 N/A
10:55 am 10:55 Sunny 69 20.8 51 10.7 53 53 NE 10 17 30.00 1016 10 16 N/A
11:15 am 11:15 Sunny 69 20.8 51 10.6 52 52 N 7 11 30.00 1016 10 16 N/A
11:35 am 11:35 Sunny 69 20.8 50 10 50 50 NE 6 9 29.97 1015 10 16 N/A
11:55 am 11:55 Sunny 69 20.8 50 9.9 50 50 N N/A 29.97 1015 10 16 N/A
12:15 pm 12:15 Sunny 70 21 49 9.4 48 48 NE 5 7 29.97 1015 10 16 N/A
12:35 pm 12:35 Sunny 72 22.2 50 10 46 46 N N/A 29.97 1015 10 16 N/A
12:55 pm 12:55 Partly Cloudy 73 23 50 9.8 43 43 N 6 9 29.97 1015 10 16 N/A
1:15 pm 13:15 Sunny 73 23 49 9.7 43 43 WNW 5 7 29.97 1015 10 16 N/A
1:35 pm 13:35 Sunny 74 23.6 51 10.4 43 43 N N/A 29.97 1015 10 16 N/A
1:55 pm 13:55 Sunny 74 23.6 49 9.3 40 40 N N/A 29.94 1014 10 16 N/A
2:15 pm 14:15 Sunny 74 23.6 48 9.1 40 40 E 7 11 29.94 1014 10 16 N/A
2:35 pm 14:35 Sunny 74 23.6 47 8.3 38 38 NNW 8 13 29.94 1014 10 16 N/A
2:55 pm 14:55 Sunny 74 23.6 47 8.4 38 38 N N/A 29.94 1014 10 16 N/A
3:15 pm 15:15 Sunny 74 23.6 47 8.1 37 37 N 5 7 29.94 1014 10 16 N/A
3:35 pm 15:35 Sunny 75 24 46 7.5 35 35 N N/A 29.91 1013 10 16 N/A
3:55 pm 15:55 Sunny 74 23.6 44 6.6 34 34 N N/A 29.91 1013 10 16 N/A
4:15 pm 16:15 Sunny 76 24.3 46 7.6 34 34 N N/A 29.91 1013 10 16 N/A
4:35 pm 16:35 Sunny 74 23.6 43 6.1 32 32 NW 3 6 29.91 1013 10 16 N/A
4:55 pm 16:55 Sunny 76 24.4 44 6.5 32 32 WNW 5 7 29.88 1012 10 16 N/A
5:15 pm 17:15 Sunny 77 25.1 46 7.8 33 33 NNE 3 6 29.88 1012 10 16 N/A
5:35 pm 17:35 Sunny 76 24.5 44 6.9 32 32 WNW 5 7 29.88 1012 10 16 N/A
5:55 pm 17:55 Sunny 77 25 44 6.6 31 31 N N/A 29.88 1012 10 16 N/A
6:15 pm 18:15 Partly Cloudy 77 25.1 44 6.9 31 31 NE 3 6 29.88 1012 10 16 N/A
6:35 pm 18:35 Sunny 77 25.1 43 6.2 30 30 NNW 6 9 29.88 1012 10 16 N/A
6:55 pm 18:55 Sunny 74 23.6 43 6.2 33 33 WNW 5 7 29.88 1012 10 16 N/A
7:15 pm 19:15 Sunny 74 23.6 43 6 32 32 N N/A 29.88 1012 10 16 N/A
7:35 pm 19:35 Sunny 74 23.6 44 6.9 34 34 NNW 3 6 29.88 1012 10 16 N/A
7:55 pm 19:55 Sunny 74 23.6 45 7.4 35 35 N N/A 29.88 1012 10 16 N/A
8:15 pm 20:15 Sunny 74 23.6 48 9 40 40 N N/A 29.88 1012 10 16 N/A
8:35 pm 20:35 Sunny 69 20.8 53 11.7 56 56 N N/A 29.88 1012 10 16 N/A
8:55 pm 20:55 Partly Cloudy 68 19.8 55 12.6 63 63 N N/A 29.88 1012 10 16 N/A
9:15 pm 21:15 Partly Cloudy 63 17 53 11.8 72 72 N N/A 29.88 1012 10 16 N/A
9:35 pm 21:35 Clear 63 17.2 52 11.3 68 68 N N/A 29.88 1012 10 16 N/A
9:50 pm 21:50 Clear 62 16.6 52 11.1 70 70 N N/A 29.88 1012 10 16 N/A
10:15 pm 22:15 Clear 61 16 52 11.2 73 73 N N/A 29.88 1012 10 16 N/A
10:35 pm 22:35 Clear 60 15.3 51 10.8 75 75 N N/A 29.88 1012 10 16 N/A
10:55 pm 22:55 Clear 60 15.3 52 10.9 75 75 N N/A 29.88 1012 10 16 N/A
11:15 pm 23:15 Clear 59 14.8 51 10.8 77 77 N N/A 29.88 1012 10 16 N/A
11:35 pm 23:35 Clear 57 13.8 50 10 78 78 N N/A 29.91 1013 10 16 N/A
11:55 pm 23:55 Clear 57 13.7 51 10.3 80 80 N N/A 29.91 1013 10 16 N/A

Powered by AerisWeather